Погода в Цзиньчжоу

Китай     43°03′15″N   125°16′50″E
темп.,
°C
ветер,
м/с
пор.,
м/с
влажн.,
%
обл.,
%
осадки,
мм/ч
давл.,
гПа
погр.,
м
16 мая, вс
вс1623:00+8вюв116789 0.0 101210
02:00+8в115871 0.0 101110
05:00+9св1151100 0.0 101110
08:00+15св3438100 0.0 1010349
11:00+19св4631100 0.0 10081383
14:00+20св4527100 0.0 10061910
17:00+19юв3436100 0.0 1005212
20:00+15ю114199 0.0 100611
17 мая, пн
пн1723:00+12ююз225387 0.0 100711
02:00+10юз22535 0.0 100710
05:00+10ююз22561 0.0 100711
08:00+18юз33350 0.0 1007390
11:00+23зюз56230 0.0 10071668
14:00+25з45200 0.0 10062510
17:00+24юз34250 0.0 1005275
20:00+16ююз47380 0.0 100686
18 мая, вт
вт1823:00+15ю34330 0.0 100643
02:00+13ююз413340 0.0 1006223
05:00+13ююв410360 0.0 1005153
08:00+22ююз815271 0.0 1005962
11:00+26юз10132358 0.0 10031307
14:00+28юз1012215 0.0 10022035
17:00+26юз813300 0.0 10021355
20:00+19ю411496 0.0 1004228
19 мая, ср
ср1923:00+18ююз494710 0.0 1005220
02:00+16ю4125091 0.0 1005254
05:00+17ю5144459 0.0 1005421
08:00+23юз915375 0.0 1005842
11:00+27юз911296 0.0 10051410
14:00+28юз101226100 0.0 10041936
17:00+25юз81234100 0.0 10051043
20:00+23юз81632100 0.0 1007861
20 мая, чт
чт2023:00+18ююз4115898 0.0 1008256
02:00+15ю366666 0.0 100893
05:00+14ююв356095 0.0 100984
08:00+22ююз7113118 0.0 1008949
11:00+26юз792330 0.0 10071665
14:00+27юз792124 0.0 10052202
17:00+25зюз572819 0.0 1004805
20:00+18юз22400 0.0 100511